Location: ??????????
(42.1626°N, 44.1160°E)
Time: 11:55:57
(UTC+00:00)

Cosmos 2218 Rocket - Pass Details

Date: 03 March 2021
Orbit: 955 x 1007 km, 82.9° (Epoch: 20 April)

Event Time Altitude Azimuth Distance (km) Brightness Sun altitude
Rises 17:01:23 0° 189° (S) 3,716 7.0 -23.9°
Reaches altitude 10° 17:03:54 10° 191° (S) 2,773 6.3 -24.4°
Maximum altitude 17:10:17 79° 277° (W) 1,029 4.1 -25.5°
Drops below altitude 10° 17:16:44 10° 5° (N) 2,788 6.5 -26.6°
Sets 17:19:17 0° 7° (N) 3,737 7.2 -27.1°
